DECAYED

STARLINK-3869, 52547 (Decayed)

Orbit data source: Space-Track

STARLINK-3869, 52547 was a payload satellite owned by SpaceX/Seattle (US) in LEO that was launched on Fri, 13 May 2022 UTC via an FALCON 9 launch vehicle from the Air Force Western Test Range (AFWTR). Payload-class satellites include a variety of spacecraft equipped with specific instruments for various scientific and technological missions. These include communications satellites like Starlink; space stations such as the ISS; scientific satellites like the Hubble; Earth observation satellites from companies like Planet Labs, Umbra, and HawkEye 360; GPS; miniature CubeSats for education and research; and military/defense satellites.

Not visible in the next 10 days
Identifier
52547, 2022-051Q
Orbit
Decayed
Country
Flag of USUS
Related business
Manufacturer
SpaceX/Seattle
Mission
Decayed Commercial Communications
Bus & Motor
STARLINK, Unknown motor
Mass
297 kg wet, ~275 kg dry
Launch date (UTC)
2022-05-13 (4 years ago)
Launch vehicle
FALCON 9
Launch site
Air Force Western Test Range (AFWTR)
Object type
Payload
Rocket body
Debris
Shape & HBR
Box + 1 Pan, 10.1 m
Radar Cross Section
13.562 m², Large (>1 m²)

Expand to show TLE details & history
Last TLE update: 1 year ago

TLE from 1 year ago
0 STARLINK-3869
1 52547U 22051Q   25112.93424654  .19977701  12505-4  28228-3 0  9994
2 52547  53.1897  84.0580 0007860 234.4553 222.9546 16.48436297163718
Epoch: 2025-04-22T22:25Z
TLE epoch observation values (Epoch: 2025-04-22T22:25:18.901Z)
Latitude
52.72373°
Longitude
-1.33703°
Altitude
153.597 km
Speed
7.818 km/s
True Right ascension
12h 24m 52s
True Declination
52° 32' 33"
Sunlit
Object was in full shadow at epoch
Visualization orbit readout
Latitude
Unknown
Longitude
Unknown
Altitude
Unknown
Speed
Unknown
Apparent Right ascension
Unknown
Apparent Declination
Unknown
Sunlit
N/A
Visualization observer readout
Local Sidereal Time
21:32:07
Azimuth
Unknown
Elevation
Unknown
Doppler factor
Unknown
Orbital elements
Apogee altitude
148.847 km
Perigee altitude
138.594 km
Semi-major axis
6,521.858 km
Eccentricity
0.00079
Inclination
53.1897°
RAAN
84.058°
Arg. of periapsis
234.4553°
True anomaly
222.89327°
Mean anomaly
222.9546°
Eccentric anomaly
222.92393°
Mean motion
4.12084 °/min
Orbital period
87.36 mins
BSTAR
0.00028228
Loading maneuver chart data...
Computing Atmospheric mass density...
Loading historical data...
Loading historical data...
Loading historical data...
Loading historical data...
Loading historical data...
Loading historical data...
Loading historical data...

Documentation

Showing up to 5 results
|